User: anonymous   Login
Location: Mentone
(34.5413°N, 85.5351°W)
Time: 19:19:58
(UTC-05:00)
Language:

NOSS 2-2 (E) - Orbit

View from above orbital plane
View from above orbital plane
View from above satellite
View from above satellite

Ground track
Ground track

The orbit data is extracted from the following two-line orbital elements,

1 21809U 91076E   17169.91140314 0.00000130  00000-0  43177-4 0    03
2 21809  63.3490  94.0933 0742000  22.3007 337.6993 13.41346821    05
Epoch (UTC): 18 June 2017 21:52:25
Eccentricity: 0.0742000
inclination: 63.3490°
perigee height: 549 km
apogee height: 1659 km
right ascension of ascending node: 94.0933°
argument of perigee: 22.3007°
revolutions per day: 13.41346821
mean anomaly at epoch: 337.6993°
orbit number at epoch: 0

The dashed part of the orbit path shows where the satellite is in the earth's shadow,  

DLR